Tracking 17631 objects as of 5-May-2016
HD Live streaming from Space Station
objects crossing your sky now

BREEZE-M DEB (TANK)

Track BREEZE-M DEB (TANK) now!


NORAD ID: 32374
Int'l Code: 2007-058B
Perigee: 504.9 km
Apogee: 34,541.8 km
Inclination: 46.5 °
Period: 612.6 minutes
Semi major axis: 23894 km
RCS: 5.0489 m2 (large)
Launch date: December 9, 2007
Source: Commonwealth of Independent States (former USSR) (CIS)
Launch site: TYURATAM MISSILE AND SPACE COMPLEX (TTMTR)

Note: This is SATELLITE DEBRIS
Your satellite tracking list
Your tracking list is empty





NASA's NSSDC Master Catalog

Two Line Element Set (TLE):
1 32374U 07058B   16125.68131905 -.00000068  00000-0  57040-3 0  9991
2 32374  46.5446 300.5141 7122377 147.5478 289.3029  2.35050051 71180
Source of the keplerian elements: AFSPC

N2YO: 496